This demonstration page uses our WeatherBlox Daily Observations layout. Learn more.

Left ArrowRight Arrow

39.29038, -76.61219

Hourly Observations for May 18, 2020

Temp ( °F °C ) Dew Point ( °F °C ) Humidity (%) Winds ( mph kmh ) Pressure ( in mb ) Visibility ( mi km ) Precip ( " mm )
12:54 am 00:54 undefined 59 15 48 8.9 67 67 undefined N/A 30.13 1020 N/A N/A
1:54 am 01:54 undefined 59 15 50 10 72 72 undefined N/A 30.11 1020 N/A N/A
2:54 am 02:54 undefined 58 14.4 50 10 75 75 undefined N/A 30.10 1019 N/A N/A
3:54 am 03:54 undefined 58 14.4 51 10.6 78 78 undefined N/A 30.09 1019 N/A N/A
4:54 am 04:54 undefined 57 13.9 51 10.6 81 81 undefined N/A 30.09 1019 N/A N/A
5:54 am 05:54 undefined 57 13.9 51 10.6 81 81 undefined N/A 30.08 1019 N/A N/A
6:54 am 06:54 undefined 57 13.9 50 10 78 78 undefined N/A 30.09 1019 N/A N/A
7:54 am 07:54 undefined 57 13.9 51 10.6 81 81 undefined N/A 30.09 1019 N/A N/A
8:54 am 08:54 undefined 59 15 52 11.1 78 78 undefined N/A 30.08 1019 N/A N/A
9:54 am 09:54 undefined 60 15.6 53 11.7 78 78 undefined N/A 30.08 1019 N/A N/A
10:54 am 10:54 undefined 60 15.6 54 12.2 80 80 undefined N/A 30.08 1019 N/A N/A
11:54 am 11:54 undefined 62 16.7 54 12.2 75 75 undefined N/A 30.07 1018 N/A N/A
12:54 pm 12:54 undefined 64 17.8 53 11.7 68 68 undefined N/A 30.05 1018 N/A N/A
1:54 pm 13:54 undefined 66 18.9 54 12.2 65 65 undefined N/A 30.04 1017 N/A N/A
2:54 pm 14:54 undefined 68 20 56 13.3 65 65 undefined N/A 30.03 1017 N/A N/A
3:54 pm 15:54 undefined 67 19.4 53 11.7 61 61 undefined N/A 30.02 1017 N/A N/A
4:54 pm 16:54 undefined 68 20 54 12.2 61 61 undefined N/A 30.00 1016 N/A N/A
5:54 pm 17:54 undefined 68 20 55 12.8 63 63 undefined N/A 29.98 1015 N/A N/A
6:54 pm 18:54 undefined 68 20 54 12.2 61 61 undefined N/A 29.98 1015 N/A N/A
7:54 pm 19:54 undefined 68 20 48 8.9 49 49 undefined N/A 30.02 1017 N/A N/A
8:54 pm 20:54 undefined 66 18.9 45 7.2 47 47 undefined N/A 30.04 1017 N/A N/A
9:54 pm 21:54 undefined 66 18.9 45 7.2 47 47 undefined N/A 30.05 1018 N/A N/A
10:54 pm 22:54 undefined 65 18.3 43 6.1 45 45 undefined N/A 30.06 1018 N/A N/A
11:54 pm 23:54 undefined 64 17.8 43 6.1 46 46 undefined N/A 30.06 1018 N/A N/A

Powered by AerisWeather